Location: Unspecified
(0.0000°N, 0.0000°E)
Time: 15:38:02
(UTC+00:00)

deb Delta 126 - Pass Details

Date: 21 February 2026
Orbit: 1458 x 1580 km, 101.9° (Epoch: 6 March)

Event Time Altitude Azimuth Distance (km) Brightness Sun altitude
Rises 03:35:54 0° 14° (NNE) 4,750 ? -38.6°
Reaches altitude 10° 03:38:46 10° 14° (NNE) 3,771 ? -37.9°
Enters shadow 03:45:11 54° 8° (N) 1,863 ? -36.4°
Exits shadow 03:49:19 65° 210° (SSW) 1,702 ? -35.4°
Drops below altitude 10° 03:56:36 10° 198° (SSW) 3,752 ? -33.6°
Sets 03:59:26 0° 197° (SSW) 4,724 ? -32.9°
